Regional Weather Roundup
Issued by NWS Cleveland, OH

Home | Current Version | Previous Version | Graphics & Text | Print | Product List | Glossary On
Versions: 1 2 3 4 5 6 7 8 9 10 11 12 13 14 15 16 17 18 19 20 21 22 23 24 25 26 27 28 29 30 31 32 33 34 35 36 37 38 39 40 41 42 43 44 45 46 47 48 49 50
000
ASUS41 KCLE 030510
RWRCLE
OHIO REGIONAL WEATHER ROUNDUP
NATIONAL WEATHER SERVICE CLEVELAND, OH
1200 AM EST TUE MAR 03 2015

NOTE: "FAIR" INDICATES FEW OR NO CLOUDS BELOW 12,000 FEET WITH NO
SIGNIFICANT WEATHER AND/OR OBSTRUCTIONS TO VISIBILITY.

OHZ001>008-015>018-024>027-034-035-043-044-030600-
   NORTHWEST OHIO

CITY           SKY/WX    TMP DP  RH WIND       PRES   REMARKS
DEFIANCE       CLOUDY    22  14  71 S5        30.36F WCI  16
FINDLAY        CLOUDY    19  12  74 S6        30.35F WCI  11
TOLEDO EXPRESS CLOUDY    21  13  71 S6        30.36F WCI  13
TOLEDO EXEC    FAIR      21  13  71 S6        30.37F WCI  13
LIMA           MOCLDY    21  11  65 SE6       30.33F WCI  13
$$

OHZ009>014-019>023-028>033-038-089-030600-
   NORTHEAST OHIO

CITY           SKY/WX    TMP DP  RH WIND       PRES   REMARKS
CLE-HOPKINS    CLOUDY    20  11  68 CALM      30.41F
CLE-LAKEFRONT  FAIR      23  13  65 SE7       30.39F WCI  15
CUY CO. ARPT   NOT AVBL
LORAIN-ELYRIA  FAIR      17  10  74 S5        30.37F WCI  10
ASHTABULA      FAIR       4   1  88 SE3       30.38F
AKRON-CANTON   FAIR      17   9  70 CALM      30.36F
WOOSTER        MOCLDY     9   5  84 E6        30.35F WCI  -1
MANSFIELD      CLOUDY    17  11  77 S6        30.34F WCI   9
YOUNGSTOWN     MOCLDY    17   7  64 SE6       30.36F WCI   9
$$

OHZ042-051>053-060>062-070>072-077>081-030600-
  SOUTHWEST OHIO

CITY           SKY/WX    TMP DP  RH WIND       PRES   REMARKS
CINC-COVINGTON CLOUDY    27  16  63 E8        30.30F WCI  19
CINC-LUNKEN    FAIR      26  16  65 NE6       30.35F WCI  19
HAMILTON       FAIR      25  16  68 E7        30.33F WCI  17
DAYTON         MOCLDY    23  14  68 SE7       30.32F WCI  15
WRIGHT-PAT AFB MOCLDY    22  14  70 E2        30.33F
DAYTON GENERAL FAIR      24  13  62 E7        30.30F WCI  16
WILMINGTON     FAIR      22  12  65 E8        30.31F WCI  12
$$

OHZ036-037-039>041-045>050-054>059-063>069-073>076-082>088-030600-
  CENTRAL AND SOUTHEAST OHIO

CITY           SKY/WX    TMP DP  RH WIND       PRES   REMARKS
COLUMBUS       MOCLDY    21  12  68 CALM      30.36F
OSU AIRPORT    FAIR      20  12  71 E3        30.35F
BOLTON FIELD   FAIR     N/A N/A N/A CALM      30.36F
RICKENBACK AFB FAIR      18  13  79 CALM      30.36F
NEWARK         FAIR      14   9  80 CALM      30.35F
MARION         MOCLDY    12   8  84 CALM      30.35F FOG
LANCASTER      FAIR      16  11  80 CALM      30.37F HAZE
ZANESVILLE     FAIR      17  12  80 CALM      30.36F
NEW PHILLY     FAIR      15   8  73 E3        30.38F
$$



USA.gov is the U.S. government's official web portal to all federal, state and local government web resources and services.